User: anonymous
Location: Platte
(43.3870°N, 98.8440°W)
Time: 07:21:37
(UTC-05:00)
Language:

Landsat 7 - Orbit

View from above orbital plane
View from above orbital plane
View from above satellite
View from above satellite

Ground track
Ground track

The orbit data is extracted from the following two-line orbital elements,

1 25682U 99020A   14209.08372117 -.00000059  00000-0 -31039-5 0  4620
2 25682 098.2137 278.1521 0000996 050.5628 309.5672 14.57104033812945
Epoch (UTC): 28 July 2014 02:00:33
Eccentricity: 0.0000996
inclination: 98.2137°
perigee height: 702 km
apogee height: 703 km
right ascension of ascending node: 278.1521°
argument of perigee: 50.5628°
revolutions per day: 14.57104033
mean anomaly at epoch: 309.5672°
orbit number at epoch: 81294

The dashed part of the orbit path shows where the satellite is in the earth's shadow,  

DLR